Date,Bedroom Min (C),Bedroom Mean (C),Bedroom Max (C),Bedroom Readings,Bedroom Battery (V),Lounge Min (C),Lounge Mean (C),Lounge Max (C),Lounge Readings,Lounge Battery (V),Outside Min (C),Outside Mean (C),Outside Max (C),Outside Readings,Outside Battery (V),Garage Min (C),Garage Mean (C),Garage Max (C),Garage Readings,Garage Battery (V),
20141226,9.08,9.46,9.80,114,2.56,9.08,9.31,9.52,114,2.56,-0.55,0.88,3.24,114,2.77,3.51,3.84,3.98,78,2.76,
20141227,8.16,8.62,9.08,286,2.55,7.87,8.35,9.03,285,2.55,-1.01,0.31,1.58,283,2.76,2.44,2.76,3.24,190,2.74,
20141228,7.57,7.92,8.70,288,2.54,7.13,7.63,8.50,288,2.54,-2.24,-0.40,1.41,288,2.75,1.52,2.04,2.44,273,2.73,
20141229,7.00,7.83,8.21,289,2.54,7.32,7.72,8.26,289,2.54,-2.78,-0.80,2.28,287,2.74,0.86,1.08,1.52,284,2.71,
20141230,7.47,7.81,8.21,288,2.53,7.52,7.89,8.50,288,2.54,-3.03,-0.66,2.07,286,2.73,0.47,0.69,0.97,208,2.71,
20141231,7.47,7.85,8.21,287,2.53,7.62,8.06,8.55,288,2.54,-1.71,1.38,4.91,288,2.75,0.47,0.88,1.74,225,2.71,
20150101,8.11,8.69,9.71,289,2.53,8.55,9.56,11.09,288,2.55,4.86,8.75,11.70,288,2.82,1.69,4.12,7.28,184,2.74,
20150102,9.32,9.61,9.95,288,2.54,10.42,10.97,11.37,289,2.56,3.29,6.02,11.84,288,2.81,5.01,6.24,7.57,249,2.77,
20150103,8.60,8.99,9.32,288,2.53,9.08,9.65,10.42,288,2.55,0.19,2.78,4.24,287,2.77,3.40,4.36,5.01,264,2.75,
20150104,7.82,11.68,15.91,286,2.56,8.01,11.97,16.73,287,2.58,-2.78,-0.50,2.07,288,2.73,1.52,2.22,3.40,253,2.73,
20150105,12.40,14.70,16.83,286,2.59,13.38,15.44,17.51,285,2.60,2.17,5.61,7.52,287,2.79,2.23,3.26,4.70,282,2.73,
20150106,13.75,15.59,17.37,284,2.60,14.00,16.39,18.10,288,2.62,2.76,5.89,8.55,288,2.79,4.70,5.27,5.83,287,2.75,
20150107,13.47,15.49,17.33,288,2.60,13.98,16.09,18.15,288,2.62,2.07,5.52,9.28,288,2.78,3.77,4.39,5.52,287,2.75,
20150108,14.00,15.73,17.28,287,2.60,15.09,16.67,18.28,288,2.63,4.70,7.04,9.71,288,2.80,5.52,5.96,6.28,286,2.76,
20150109,14.00,15.69,16.83,288,2.61,15.41,16.57,17.87,288,2.63,6.03,10.34,13.84,288,2.82,5.52,6.25,8.60,227,2.76,
20150110,15.18,16.54,18.24,288,2.61,16.32,17.54,19.01,288,2.64,2.98,7.89,13.34,286,2.81,6.43,8.09,9.42,188,2.79,
20150111,14.00,16.42,18.46,287,2.61,15.64,17.33,19.10,289,2.64,2.00,4.83,6.93,289,2.77,4.86,5.32,6.38,285,2.76,
20150112,15.32,16.70,18.19,280,2.62,16.05,17.23,18.64,288,2.64,5.21,7.37,10.38,286,2.79,5.32,5.90,6.68,169,2.76,
20150113,15.64,17.12,18.19,284,2.62,16.05,17.34,18.74,287,2.65,1.47,3.85,6.08,287,2.75,4.50,5.33,5.93,63,2.76,
20150114,15.09,16.72,18.19,271,2.61,15.36,16.83,18.64,286,2.64,0.36,2.71,7.57,283,2.73,3.08,3.36,4.45,140,2.73,
20150115,14.00,16.00,17.78,287,2.60,14.00,16.45,17.83,289,2.64,3.51,5.33,9.03,288,2.75,4.55,4.78,5.21,75,2.75,
20150116,12.03,14.36,16.78,286,2.58,12.26,14.86,17.24,288,2.63,-0.26,2.57,4.19,286,2.72,2.76,3.86,4.60,179,2.74,
20150117,10.38,10.92,11.98,287,2.54,10.23,10.87,12.26,288,2.59,-0.26,1.43,3.98,284,2.70,1.63,2.07,2.76,282,2.71,
20150118,9.66,10.81,15.23,288,2.53,9.13,10.43,14.77,289,2.59,-1.59,0.74,4.08,278,2.68,0.86,1.42,2.07,254,2.70,
20150119,12.78,15.00,16.69,287,2.57,12.45,14.72,16.37,288,2.62,-2.06,0.68,3.24,286,2.68,0.81,1.30,1.74,244,2.70,
20150120,12.73,14.97,16.73,288,2.56,12.54,14.86,16.64,288,2.62,-1.65,0.62,2.28,289,2.67,0.92,1.34,1.58,113,2.70,
20150121,13.01,15.02,16.87,288,2.57,12.87,15.03,16.78,288,2.63,0.19,1.34,2.17,288,2.67,1.36,1.46,1.85,62,2.70,
20150122,13.20,15.29,17.37,284,2.57,13.15,15.33,17.37,288,2.63,0.69,2.28,4.45,287,2.68,1.69,2.10,2.66,77,2.70,
20150123,13.52,15.21,16.55,285,2.57,1.00,15.04,16.51,289,2.63,-1.42,2.05,6.18,286,2.67,1.14,1.70,2.60,182,2.70,
20150124,11.51,12.48,14.12,287,2.54,11.18,12.18,13.98,288,2.61,1.41,3.57,5.88,288,2.68,2.17,2.68,3.14,235,2.70,
20150125,10.95,11.19,11.51,284,2.52,10.33,10.66,11.23,288,2.59,1.79,5.09,8.36,287,2.69,2.28,2.89,4.75,221,2.71,
20150126,11.42,11.64,11.80,288,2.52,11.18,11.52,11.75,288,2.60,3.24,6.44,8.31,288,2.70,4.81,5.34,5.93,107,2.73,
20150127,11.18,11.30,11.42,288,2.52,1.00,11.03,11.37,289,2.59,2.23,5.34,7.37,286,2.68,3.98,4.59,5.21,279,2.73,
20150128,10.57,11.25,11.65,286,2.51,10.66,11.23,11.51,287,2.59,1.36,4.50,8.74,288,2.67,3.98,5.09,5.62,224,2.73,
20150129,9.80,10.09,10.57,284,2.50,9.37,9.73,10.66,288,2.58,-0.21,0.90,2.82,286,2.62,2.07,2.78,3.98,253,2.71,
20150130,9.42,9.60,9.85,283,2.49,8.60,8.82,9.37,287,2.57,-1.24,0.94,3.72,284,2.61,1.69,1.87,2.12,233,2.69,
20150131,9.08,9.39,9.56,286,2.49,8.36,8.48,8.79,288,2.57,0.02,2.02,4.81,285,2.62,1.47,1.82,2.39,228,2.69,
20150201,8.70,9.03,9.18,285,2.49,7.92,8.10,8.36,289,2.56,-2.00,1.78,3.92,287,2.61,1.79,2.29,2.92,254,2.69,
20150202,8.60,8.99,9.42,288,2.48,7.57,7.92,8.40,287,2.56,-2.66,-0.28,2.60,287,2.58,0.25,0.87,1.79,279,2.67,
20150203,8.70,8.99,9.32,284,2.48,7.62,7.93,8.26,288,2.56,-0.78,0.73,4.24,287,2.58,0.36,0.86,1.58,197,2.67,
20150204,8.79,11.83,16.46,286,2.51,7.62,11.03,16.00,288,2.58,-0.78,1.47,3.98,285,2.58,0.53,1.11,1.69,285,2.67,
20150205,13.20,15.56,17.42,289,2.54,12.64,14.98,16.64,289,2.62,-0.32,1.96,3.35,289,2.58,1.41,1.71,2.12,285,2.67,
20150206,13.84,16.17,17.87,286,2.54,13.10,15.43,17.19,288,2.63,-0.83,1.10,3.87,285,2.57,0.75,1.33,1.96,287,2.67,
20150207,15.78,17.46,19.05,285,2.56,15.13,16.71,18.51,288,2.64,0.13,3.09,5.52,288,2.58,1.25,1.92,2.82,284,2.67,
20150208,15.82,17.78,19.28,289,2.57,15.46,17.31,18.96,288,2.65,0.81,2.62,5.93,287,2.57,1.19,2.05,2.92,284,2.67,
20150209,15.91,17.93,19.55,288,2.57,15.64,17.46,18.83,288,2.65,1.69,3.96,7.82,286,2.58,1.58,2.41,3.77,223,2.67,
20150210,14.00,16.81,18.74,286,2.56,14.00,16.34,18.46,289,2.64,0.30,2.95,4.29,286,2.56,2.23,2.73,3.08,174,2.68,
20150211,14.00,16.34,17.83,287,2.55,13.84,15.74,17.55,288,2.64,3.29,3.93,4.55,288,2.57,2.92,3.10,3.35,196,2.68,
20150212,14.00,16.36,17.87,284,2.55,14.00,15.86,17.55,288,2.64,1.90,3.89,5.01,289,2.56,3.19,3.35,3.61,281,2.68,
20150213,14.00,15.60,17.74,286,2.54,13.71,15.15,17.05,288,2.63,2.23,5.07,7.72,288,2.57,2.98,3.55,4.45,251,2.68,
20150214,13.10,13.48,14.08,289,2.51,12.73,12.98,13.71,289,2.62,4.03,5.96,8.16,288,2.58,4.24,5.04,5.88,242,2.70,
20150215,12.68,15.02,18.05,287,2.53,12.08,14.80,18.05,288,2.63,4.39,5.69,7.72,287,2.57,5.21,5.77,7.13,266,2.70,
20150216,14.00,15.91,17.24,287,2.53,14.00,16.25,17.87,288,2.64,2.76,4.89,7.03,288,2.55,4.86,5.41,6.08,287,2.70,
20150217,13.89,15.47,16.92,289,2.53,14.00,15.83,17.51,288,2.64,0.47,3.86,7.77,287,2.54,3.24,4.04,4.86,278,2.69,
20150218,14.00,15.85,17.69,287,2.53,14.00,16.27,18.01,289,2.64,3.29,6.33,10.38,288,2.56,3.92,4.78,6.03,275,2.69,
20150219,14.00,15.81,17.14,287,2.53,15.18,16.32,17.46,288,2.64,5.01,6.29,7.96,287,2.55,5.52,5.79,6.03,285,2.70,
20150220,14.00,15.95,17.65,287,2.53,14.00,16.15,17.96,288,2.64,1.74,4.14,6.73,288,2.53,4.65,5.14,5.88,287,2.69,
20150221,15.59,17.17,18.74,285,2.54,15.59,17.05,18.15,288,2.65,0.97,3.06,6.73,289,2.51,3.66,4.15,4.65,288,2.68,
20150222,15.64,17.51,19.33,285,2.54,15.27,17.05,18.87,287,2.65,-0.32,3.05,7.13,288,2.51,2.60,3.11,3.92,232,2.66,
20150223,14.00,16.69,18.51,287,2.53,14.00,16.36,18.46,289,2.64,1.96,3.72,6.18,288,2.51,3.24,3.60,3.87,203,2.67,
20150224,14.00,16.02,18.01,286,2.52,14.00,15.84,17.19,288,2.64,2.34,4.12,7.03,289,2.51,3.45,3.84,4.45,188,2.66,
20150225,14.00,16.22,17.55,287,2.52,14.00,15.57,17.46,286,2.64,2.66,6.62,10.04,284,2.53,3.61,4.46,5.93,286,2.67,
20150226,15.32,16.56,17.87,284,2.53,15.36,16.50,18.10,289,2.64,2.07,7.30,10.09,288,2.53,5.93,6.58,7.47,190,2.69,
20150227,14.00,16.07,18.10,288,2.52,13.98,15.80,17.60,288,2.64,-0.09,3.85,8.26,288,2.50,3.87,4.90,6.23,184,2.67,
20150228,16.83,18.17,19.42,288,2.54,16.60,17.90,19.28,288,2.66,4.24,7.86,11.14,286,2.53,4.81,5.75,7.18,287,2.68,
20150301,15.78,17.47,18.96,286,2.53,15.78,17.46,19.46,288,2.65,2.07,5.62,9.23,288,2.51,5.62,6.51,7.13,265,2.69,
20150302,14.00,16.32,18.55,286,2.52,14.00,16.17,18.87,288,2.64,1.19,3.30,6.88,289,2.48,3.92,4.51,5.62,285,2.66,
20150303,15.82,17.72,19.24,287,2.53,15.59,17.53,19.37,289,2.66,1.79,3.72,6.93,285,2.48,3.45,4.02,4.65,283,2.65,
20150304,18.10,18.12,18.15,2,999.00,17.78,17.83,17.87,3,999.00,2.82,2.82,2.82,2,999.00,5.16,5.16,5.16,1,999.00,
20150305,15.73,17.33,18.60,287,2.52,15.64,17.26,18.33,288,2.66,2.01,5.82,9.52,288,2.50,3.98,4.93,6.03,285,2.66,
20150306,14.00,15.99,17.42,287,2.51,14.00,16.06,17.69,288,2.65,6.63,8.51,13.84,288,2.52,6.03,6.98,8.31,288,2.68,
20150307,14.40,14.63,14.90,287,2.49,14.08,14.50,14.95,289,2.64,6.73,9.87,17.92,288,2.53,7.18,8.43,9.90,276,2.69,
20150308,13.71,14.28,14.54,288,2.49,13.47,14.13,14.67,288,2.63,3.19,7.64,11.70,289,2.51,8.01,8.74,9.56,269,2.69,
20150309,12.73,13.00,13.66,287,2.48,11.89,12.32,13.47,288,2.61,0.36,5.64,9.80,288,2.49,5.62,6.36,7.96,237,2.67,
20150310,12.40,14.14,17.60,287,2.49,11.80,13.86,18.10,288,2.63,2.87,6.58,17.19,286,2.49,5.47,6.62,7.82,288,2.66,
20150311,14.00,16.10,17.78,286,2.50,14.00,16.28,18.15,289,2.65,1.79,7.10,11.37,288,2.50,5.47,6.75,7.62,209,2.66,
20150312,15.64,16.58,17.69,260,2.50,16.05,16.98,18.46,288,2.65,7.67,10.27,15.82,288,2.52,7.62,8.59,9.95,164,2.68,
20150313,15.32,16.41,18.15,288,2.50,15.68,16.84,18.42,288,2.66,3.87,7.27,13.38,287,2.49,8.40,9.05,9.76,263,2.68,
20150314,15.55,16.89,18.46,286,2.50,15.78,17.04,18.60,288,2.66,3.03,4.57,9.99,289,2.47,6.53,7.28,8.65,270,2.66,
20150315,16.55,17.86,18.92,287,2.51,16.60,17.69,19.05,288,2.66,4.03,5.14,7.72,288,2.47,6.03,6.33,6.63,285,2.64,
20150316,16.73,17.76,19.14,286,2.51,16.69,17.63,18.87,289,2.66,3.92,5.74,8.65,289,2.47,5.77,6.31,6.98,288,2.64,
20150317,16.92,18.08,19.28,286,2.51,16.83,17.94,19.10,288,2.66,2.98,5.65,12.03,288,2.47,5.67,6.48,7.28,281,2.63,
20150318,16.64,18.03,19.42,284,2.51,16.73,17.95,19.33,287,2.66,0.47,5.15,9.42,287,2.46,5.01,6.05,6.88,287,2.62,
20150319,16.69,17.79,19.05,288,2.51,16.83,17.84,19.37,288,2.66,3.61,5.54,7.08,287,2.46,5.93,6.30,6.63,285,2.62,
20150320,16.78,17.95,19.33,264,2.51,16.83,17.93,19.37,289,2.66,3.45,7.84,15.78,289,2.48,5.37,6.71,8.40,285,2.62,
20150321,16.69,18.02,19.28,288,2.51,16.92,18.43,19.60,288,2.66,5.42,6.91,9.47,288,2.47,7.42,7.89,8.31,284,2.62,
20150322,15.82,17.80,19.14,282,2.50,15.96,18.27,20.05,284,2.66,3.92,7.25,18.64,286,2.47,6.93,8.11,9.76,280,2.62,
20150323,15.27,16.61,18.24,289,2.49,15.13,16.68,18.60,288,2.64,1.79,5.73,9.71,288,2.46,6.58,7.34,8.79,287,2.61,
20150324,15.04,16.40,18.19,286,2.49,15.18,16.45,17.96,289,2.64,1.85,5.46,14.40,288,2.45,5.77,6.77,7.92,286,2.60,
20150325,15.04,16.48,18.83,287,2.49,14.00,16.40,18.46,288,2.64,1.30,5.20,12.26,289,2.45,5.32,6.35,7.28,286,2.59,
20150326,16.05,17.63,18.92,286,2.50,16.32,17.83,19.55,288,2.65,2.71,6.91,16.23,288,2.46,5.83,6.93,8.36,284,2.59,
20150327,16.64,17.77,19.64,278,2.49,16.96,18.08,19.64,288,2.65,2.98,7.51,18.46,288,2.46,6.18,7.77,9.37,269,2.59,
20150328,16.00,17.48,19.14,286,2.49,16.96,17.91,19.24,289,2.65,5.83,10.49,18.87,289,2.49,8.11,9.13,10.38,284,2.60,
20150329,14.00,15.98,18.55,286,2.48,15.55,16.71,19.24,288,2.63,5.06,8.07,12.17,288,2.47,8.74,9.40,10.09,205,2.60,
20150330,15.82,17.25,19.10,282,2.48,16.19,17.54,18.83,288,2.63,3.77,6.77,12.17,289,2.46,6.98,7.91,8.60,230,2.58,
20150331,15.46,17.07,18.24,281,2.48,16.00,17.77,20.42,289,2.64,2.34,6.59,12.78,288,2.45,7.67,8.34,9.18,265,2.58,
20150401,14.00,16.39,17.69,279,2.47,15.27,17.06,18.55,288,2.63,3.03,5.84,10.61,288,2.45,6.08,7.09,7.87,227,2.56,
20150402,15.73,16.92,18.05,283,2.48,16.05,17.37,18.74,288,2.62,4.34,8.39,16.55,289,2.47,6.93,8.46,10.42,284,2.56,
20150403,15.73,17.28,18.74,278,2.48,16.42,18.08,19.33,288,2.63,6.18,9.11,12.03,287,2.48,9.08,9.56,10.09,284,2.57,
20150404,16.37,17.50,18.78,286,2.48,17.10,17.89,19.05,289,2.63,6.93,8.69,13.38,288,2.48,8.79,9.29,9.71,287,2.56,
20150405,16.51,17.70,18.87,281,2.48,17.05,18.27,19.73,288,2.63,7.18,11.08,21.14,289,2.51,8.84,10.04,11.80,288,2.57,
20150406,16.28,17.48,18.60,287,2.48,17.19,18.17,19.14,288,2.63,5.72,11.00,20.87,288,2.52,8.99,11.17,13.94,269,2.57,
20150407,16.37,17.08,17.92,271,2.47,16.92,17.81,18.64,288,2.62,5.88,12.14,26.04,288,2.55,10.47,12.16,14.35,154,2.58,
20150408,15.64,16.62,17.87,281,2.47,16.55,17.42,18.74,289,2.61,6.68,11.51,22.73,289,2.58,11.09,12.88,14.77,285,2.58,
20150409,15.78,16.74,17.87,288,2.47,16.69,17.55,18.83,288,2.61,6.38,13.19,26.51,288,2.61,11.51,13.48,15.68,285,2.58,
20150410,16.32,16.95,17.83,285,2.47,17.05,17.65,18.24,288,2.61,7.32,14.27,26.65,287,2.63,12.36,14.36,16.37,286,2.59,
20150411,14.00,15.77,16.64,286,2.45,15.59,16.60,17.65,288,2.60,6.28,10.47,17.96,289,2.60,12.96,14.04,15.55,287,2.58,
20150412,14.21,15.24,17.83,284,2.45,14.00,15.58,17.96,289,2.58,3.40,7.70,14.90,288,2.58,10.57,11.50,12.92,284,2.55,
20150413,15.13,15.94,17.33,289,2.46,15.50,16.36,18.01,288,2.58,2.01,9.03,17.60,288,2.58,8.26,9.92,11.51,286,2.53,
20150414,15.96,16.93,17.87,255,2.46,16.55,17.57,18.87,288,2.59,9.08,13.27,18.78,289,2.62,10.66,12.98,16.28,286,2.55,
20150415,16.55,17.13,17.78,288,2.46,17.46,18.03,18.78,289,2.60,8.01,12.15,18.05,288,2.61,12.64,14.25,15.55,284,2.56,
20150416,15.46,16.32,17.37,286,2.45,16.23,17.06,18.05,288,2.59,8.11,10.55,13.75,288,2.59,12.87,13.67,14.77,285,2.55,
20150417,14.00,14.84,15.46,286,2.44,14.00,15.52,16.23,288,2.57,4.91,9.23,12.96,288,2.58,11.84,12.70,13.43,286,2.53,
20150418,13.71,13.98,14.40,286,2.43,13.80,14.24,14.95,288,2.54,3.45,7.67,12.82,289,2.56,9.76,11.70,14.03,284,2.52,
20150419,13.52,14.13,16.60,288,2.43,13.47,14.15,16.42,289,2.54,5.01,7.81,12.78,288,2.56,10.57,11.43,12.40,285,2.51,
20150420,15.55,16.40,18.01,283,2.45,15.36,16.39,18.24,288,2.56,2.55,9.03,15.46,289,2.56,9.42,11.82,14.86,287,2.51,
20150421,15.78,16.72,17.78,262,2.45,16.14,17.20,18.51,288,2.57,5.06,11.18,16.96,288,2.58,11.42,13.72,16.42,286,2.52,
20150422,15.91,16.78,17.78,287,2.45,16.37,17.41,18.64,289,2.57,5.77,10.99,15.46,288,2.57,12.22,13.77,15.09,285,2.52,
20150423,15.78,16.81,17.83,277,2.45,16.42,17.47,18.60,288,2.58,4.39,10.57,16.64,289,2.57,11.84,13.91,16.55,287,2.52,
20150424,16.46,16.97,17.78,285,2.45,17.14,17.78,18.28,288,2.58,7.62,13.23,18.42,288,2.59,13.24,14.81,16.05,283,2.52,
20150425,15.36,16.03,16.46,286,2.44,16.28,16.92,17.42,288,2.57,5.67,11.71,16.60,288,2.58,13.98,14.79,15.78,286,2.52,
20150426,14.00,15.09,17.10,289,2.43,14.00,15.77,17.78,289,2.55,5.06,8.93,13.75,288,2.55,11.89,13.82,16.42,285,2.51,
20150427,14.00,15.57,17.28,285,2.43,14.00,16.27,17.92,288,2.55,2.92,7.58,12.45,289,2.54,10.85,12.74,14.26,283,2.50,
20150428,14.00,15.76,17.28,286,2.43,15.13,16.40,18.37,288,2.55,3.03,8.12,13.01,288,2.54,10.09,11.64,13.34,286,2.48,
20150429,14.00,15.81,17.01,287,2.43,15.96,16.67,17.96,289,2.55,6.13,8.91,13.24,288,2.54,10.42,11.80,13.66,286,2.48,
20150430,15.27,16.10,17.37,287,2.44,15.91,16.69,18.10,288,2.55,4.75,8.45,13.75,289,2.54,10.23,11.34,12.26,285,2.48,
20150501,14.00,15.70,17.10,276,2.43,14.00,15.79,17.19,288,2.54,3.19,7.06,11.23,288,2.53,9.42,10.89,12.17,258,2.48,
20150502,14.03,14.28,14.54,286,2.42,13.71,14.14,14.54,288,2.52,3.92,7.49,10.28,288,2.53,9.71,10.39,11.28,268,2.47,
20150503,14.00,16.80,18.87,283,2.44,13.84,17.01,19.10,289,2.55,7.18,12.08,18.78,289,2.56,9.66,11.39,14.12,265,2.49,
20150504,16.69,17.77,19.42,288,2.45,17.33,18.61,20.01,288,2.56,10.14,13.55,17.28,288,2.57,12.64,14.32,16.32,283,2.52,
20150505,17.05,17.64,18.24,237,2.44,17.69,18.25,19.01,288,2.57,8.50,11.85,15.09,288,2.56,13.66,14.62,15.68,286,2.54,
20150506,16.28,17.12,18.01,284,2.44,16.55,17.35,18.10,289,2.55,7.47,9.62,12.22,289,2.54,11.23,12.08,13.66,281,2.52,
20150507,15.82,16.68,17.74,284,2.43,16.10,17.14,18.60,288,2.55,5.93,10.03,13.20,288,2.54,9.85,10.94,12.22,284,2.51,
20150508,15.91,17.08,18.46,244,2.44,16.69,18.15,20.01,288,2.56,7.03,11.18,15.36,288,2.55,10.66,11.81,12.73,282,2.52,
20150509,15.13,15.73,16.55,287,2.42,16.14,16.67,17.55,288,2.54,8.01,11.02,13.84,289,2.55,11.65,12.40,13.24,281,2.52,
20150510,14.00,15.10,15.73,286,2.42,15.55,16.08,16.73,288,2.53,7.62,12.74,17.51,288,2.56,11.37,13.15,15.23,282,2.52,
20150511,15.55,16.61,17.46,284,2.43,16.51,17.84,19.14,288,2.55,11.37,15.54,20.55,288,2.58,13.84,15.77,19.01,267,2.55,
20150512,16.42,16.71,17.37,287,2.43,17.78,18.37,18.78,289,2.55,10.23,13.27,16.32,289,2.57,15.32,16.76,17.96,234,2.55,
20150513,16.00,16.61,17.42,284,2.42,17.24,17.77,18.42,288,2.54,7.72,12.28,17.65,288,2.56,13.89,15.62,17.10,266,2.54,
20150514,15.73,16.38,17.46,281,2.42,16.42,17.08,18.19,288,2.53,6.63,9.08,11.47,288,2.53,13.10,13.96,15.87,284,2.52,
20150515,15.64,16.23,17.37,287,2.42,16.00,16.76,17.42,289,2.53,6.68,11.41,16.46,289,2.55,11.80,14.07,16.73,286,2.52,
20150516,15.82,16.54,17.74,289,2.42,16.69,17.73,19.33,288,2.54,9.76,13.35,16.46,288,2.56,14.00,16.44,18.83,288,2.54,
20150517,15.73,16.65,17.60,281,2.42,16.69,17.94,18.74,288,2.54,7.08,11.82,15.64,288,2.55,14.00,15.18,17.10,265,2.53,
20150518,16.05,16.60,17.60,277,2.42,16.51,17.26,18.37,289,2.53,7.37,9.62,13.29,289,2.53,12.64,13.42,14.67,268,2.51,
20150519,15.64,16.51,17.78,289,2.42,15.96,16.97,18.87,288,2.52,6.53,9.53,13.34,288,2.53,11.37,12.39,13.71,275,2.50,
20150520,15.68,16.69,17.69,288,2.42,16.23,17.44,18.96,288,2.52,5.98,10.87,15.23,289,2.54,11.14,12.14,15.68,154,2.49,
20150521,16.05,16.93,17.74,287,2.42,16.87,17.89,18.60,289,2.53,6.93,13.68,18.83,288,2.56,12.59,15.76,17.33,160,2.52,
20150522,16.78,17.72,19.19,282,2.43,17.69,18.78,19.96,288,2.53,11.61,15.88,20.60,288,2.58,15.46,17.36,19.55,245,2.53,
20150523,17.78,18.30,19.33,289,2.43,18.60,19.23,19.92,288,2.54,10.99,14.22,18.24,289,2.57,16.32,17.54,18.55,282,2.53,
20150524,18.05,18.91,20.01,287,2.43,19.10,19.66,20.69,289,2.54,10.09,13.26,17.65,288,2.57,15.87,16.58,17.78,254,2.52,
20150525,17.87,18.50,19.24,287,2.43,18.33,18.97,19.46,288,2.53,9.47,12.01,15.46,288,2.56,14.00,14.88,16.14,287,2.51,
20150526,17.10,17.64,18.60,289,2.42,17.87,18.32,18.92,288,2.52,9.13,13.54,18.10,289,2.57,13.29,15.15,17.83,287,2.51,
20150527,16.37,16.88,17.83,239,2.41,17.19,17.73,18.28,289,2.51,7.03,13.05,18.28,288,2.56,13.98,15.52,16.83,277,2.51,
20150528,16.05,16.79,17.92,270,2.41,16.92,17.66,18.92,287,2.51,9.32,12.40,15.64,288,2.56,14.00,15.61,17.19,277,2.51,
20150529,15.82,16.74,17.65,248,2.41,17.10,17.69,18.55,288,2.51,7.82,10.60,14.12,289,2.54,13.89,14.92,16.10,218,2.50,
20150530,15.32,15.69,16.05,289,2.40,16.23,16.50,17.10,289,2.49,6.28,12.39,16.60,287,2.55,12.64,14.35,16.00,187,2.49,
20150531,15.55,16.43,18.05,287,2.40,16.28,17.25,18.87,288,2.50,7.62,11.85,14.49,288,2.55,14.00,15.10,16.46,247,2.49,
20150601,15.55,16.21,17.51,288,2.40,16.28,16.99,17.96,288,2.49,6.23,10.53,14.21,289,2.54,12.78,13.59,14.86,252,2.48,
20150602,15.50,15.87,16.23,289,2.39,16.23,16.78,17.42,289,2.49,10.66,14.15,19.05,288,2.56,12.78,14.42,16.32,229,2.49,
20150603,15.82,17.00,17.74,284,2.40,17.19,18.17,19.01,288,2.50,10.47,14.88,18.96,288,2.57,14.00,16.04,18.96,242,2.50,
20150604,16.51,17.34,17.96,288,2.41,17.78,18.68,19.78,289,2.50,9.42,16.73,22.87,289,2.59,15.96,18.51,22.14,152,2.52,
20150605,17.33,17.66,18.19,288,2.41,18.78,19.16,19.64,288,2.51,10.95,16.59,23.47,288,2.59,18.78,20.46,22.01,107,2.54,
20150606,16.55,16.87,17.46,288,2.40,17.33,17.91,18.78,288,2.50,8.99,13.90,18.01,288,2.57,16.55,18.32,20.23,276,2.52,
20150607,16.23,16.76,18.37,288,2.40,16.96,17.80,19.33,289,2.49,8.65,14.13,18.96,289,2.57,15.82,18.10,20.96,287,2.52,
20150608,16.42,16.99,17.69,288,2.40,17.60,18.09,18.60,288,2.49,7.87,12.20,17.51,288,2.55,16.55,17.77,19.24,278,2.52,
20150609,16.00,16.77,18.64,287,2.39,16.60,17.44,19.33,288,2.48,6.28,11.01,14.86,288,2.54,14.00,15.65,16.87,253,2.50,
20150610,16.51,17.14,17.92,285,2.39,17.24,17.93,18.69,289,2.49,6.33,11.61,16.32,289,2.54,13.71,16.12,18.74,251,2.50,
20150611,16.37,17.29,17.92,276,2.40,17.05,18.21,19.69,286,2.49,7.82,14.61,21.01,287,2.56,15.09,17.48,21.41,220,2.50,
20150612,17.05,17.69,18.92,285,2.40,18.24,18.71,19.60,288,2.49,9.71,14.53,21.64,288,2.56,17.33,18.94,20.10,198,2.52,
20150613,17.69,18.22,19.46,289,2.40,18.37,18.86,19.55,288,2.49,11.61,12.63,13.66,289,2.55,15.73,16.92,19.10,285,2.50,
20150614,17.65,18.32,19.55,285,2.40,17.92,18.64,19.55,288,2.49,9.28,12.05,15.50,288,2.54,14.00,15.14,15.68,267,2.49,
20150615,17.14,18.22,19.60,280,2.40,17.28,18.61,20.19,288,2.49,8.40,13.95,19.37,289,2.55,13.43,15.82,19.28,265,2.49,
20150616,17.83,18.54,19.42,283,2.40,18.69,19.54,20.42,288,2.49,11.70,17.57,23.60,288,2.59,17.01,19.52,22.42,277,2.51,
20150617,18.37,18.72,19.05,263,2.40,19.64,20.04,20.46,288,2.50,13.06,17.48,22.87,288,2.59,19.14,20.31,21.41,284,2.52,
20150618,18.01,18.36,19.05,234,2.39,19.19,19.47,20.14,289,2.49,10.85,14.78,19.01,289,2.57,17.74,19.18,20.46,283,2.52,
20150619,17.37,17.69,18.05,289,2.39,18.24,18.59,19.19,288,2.48,11.09,13.94,17.87,288,2.56,16.87,17.79,19.19,286,2.50,
20150620,17.19,17.52,17.92,286,2.38,18.15,18.58,19.14,289,2.48,12.82,16.18,21.32,288,2.58,16.69,17.69,18.92,272,2.50,
20150621,17.51,17.68,18.10,285,2.38,18.74,18.92,19.24,288,2.48,11.89,15.78,19.05,289,2.58,17.24,18.43,20.01,234,2.50,
20150622,16.64,17.03,17.51,289,2.38,17.69,18.02,18.78,288,2.47,10.47,13.12,16.83,288,2.56,16.69,17.28,18.83,207,2.49,
20150623,16.55,17.23,17.78,279,2.38,17.28,18.16,18.96,289,2.47,10.95,14.68,19.01,288,2.56,15.55,17.24,19.51,284,2.49,
20150624,17.28,17.77,18.33,287,2.38,18.51,19.01,19.83,288,2.47,11.65,17.06,22.60,289,2.58,17.01,19.19,21.69,285,2.50,
20150625,17.87,18.27,18.74,285,2.39,19.01,19.51,20.32,289,2.47,13.34,18.61,23.15,288,2.60,19.05,20.22,22.01,231,2.52,
20150626,18.60,18.77,19.01,267,2.39,20.10,20.28,20.69,288,2.48,13.61,17.28,20.91,289,2.59,19.73,20.36,21.46,168,2.52,
20150627,18.28,18.63,19.14,287,2.39,19.33,19.94,20.96,288,2.48,12.26,18.62,23.28,288,2.60,17.83,19.48,22.78,175,2.51,
20150628,18.78,19.08,20.23,281,2.39,20.10,20.49,21.01,289,2.48,14.00,16.93,21.55,288,2.59,19.33,19.81,21.37,155,2.51,
20150629,18.74,19.28,20.28,286,2.39,19.96,20.50,21.28,288,2.48,13.10,18.88,23.88,289,2.61,18.05,19.87,22.60,255,2.51,
20150630,19.42,19.97,20.78,284,2.39,20.69,21.38,22.51,289,2.49,14.67,22.52,28.43,288,2.64,20.37,23.37,27.63,254,2.54,
20150701,20.23,20.78,21.60,289,2.40,22.19,22.79,23.88,288,2.50,17.28,25.95,33.12,288,2.67,23.88,26.21,29.28,257,2.57,
20150702,21.10,21.58,21.91,288,2.40,22.60,23.47,23.97,289,2.50,14.00,20.53,25.49,289,2.63,23.92,26.11,28.52,228,2.58,
20150703,20.32,20.58,21.05,289,2.39,21.23,21.66,22.60,288,2.48,12.68,18.53,24.43,288,2.60,20.78,23.21,25.26,231,2.56,
20150704,20.14,20.55,21.32,288,2.39,21.19,21.77,22.73,288,2.48,14.00,19.50,25.21,288,2.61,21.41,23.23,25.49,278,2.55,
20150705,20.42,20.67,21.55,288,2.39,21.55,21.91,22.37,289,2.48,14.00,17.60,23.28,289,2.59,21.51,22.56,24.15,278,2.54,
20150706,19.87,20.17,20.69,281,2.39,20.73,21.13,22.01,288,2.47,11.80,16.36,19.14,288,2.58,19.60,20.28,22.14,243,2.52,
20150707,19.46,19.87,21.01,287,2.38,20.42,20.70,21.23,289,2.46,14.00,17.16,20.60,289,2.58,18.64,20.64,21.60,38,2.52,
20150708,18.55,19.07,19.46,285,2.38,19.28,19.96,20.69,288,2.45,10.95,14.62,19.78,287,2.56,17.51,18.38,19.33,125,2.50,
20150709,17.92,18.28,18.96,285,2.37,18.19,18.93,20.23,288,2.44,9.42,16.03,20.78,288,2.57,15.68,18.33,21.87,287,2.50,
20150710,18.46,18.90,19.33,284,2.38,19.64,20.24,20.96,289,2.45,13.24,20.17,25.90,289,2.60,19.19,21.47,24.29,282,2.52,
20150711,19.19,19.39,19.64,289,2.38,20.69,20.85,21.05,288,2.45,15.23,19.48,24.11,288,2.60,21.64,22.64,23.69,286,2.54,
20150712,19.19,19.54,20.51,287,2.38,20.19,20.79,22.19,289,2.45,14.00,18.08,22.78,289,2.59,19.96,21.49,23.33,276,2.53,
20150713,19.42,19.57,19.87,268,2.38,20.64,21.04,21.96,288,2.45,14.00,17.15,19.87,288,2.58,19.92,20.54,22.32,279,2.52,
20150714,19.55,19.72,20.05,279,2.38,20.69,20.98,21.91,289,2.45,15.82,18.82,22.14,288,2.59,19.05,20.20,21.55,281,2.51,
20150715,19.42,19.70,20.23,285,2.38,20.46,20.96,22.01,288,2.44,13.75,17.10,21.41,289,2.57,19.42,21.14,23.88,239,2.52,
20150716,19.24,19.47,19.83,285,2.38,20.10,20.47,21.10,288,2.44,12.17,17.12,22.51,288,2.57,19.73,21.26,22.69,244,2.52,
20150717,19.37,19.66,20.51,281,2.38,20.42,20.89,21.87,289,2.44,14.00,18.00,22.05,289,2.58,20.19,21.21,22.64,272,2.52,
20150718,19.10,19.49,20.28,252,2.38,19.92,20.50,21.19,288,2.43,11.61,17.19,22.14,288,2.57,18.64,20.37,21.91,261,2.51,
20150719,19.24,19.49,19.83,285,2.38,20.19,20.64,21.32,289,2.43,13.57,16.46,20.46,288,2.56,19.24,20.77,22.37,271,2.51,